Location: Peebles
(55.6412°N, 3.1714°W)
Time: 14:08:05
(UTC+01:00)

Vanguard 1 - Visible Passes

Search period start: 29 September 2023 00:00
Search period end: 09 October 2023 00:00
Orbit: 650 x 3830 km, 34.2° (Epoch: 28 September)

Date Brightness Start Highest point End Pass type
(mag) Time Alt. Az. Time Alt. Az. Time Alt. Az.
29 Sep 14.3 20:20:38 10° WSW 20:28:36 14° SW 20:37:43 10° SSW visible
02 Oct 14.3 19:00:05 10° WSW 19:07:48 15° SSW 19:17:14 10° S visible
03 Oct 14.4 19:23:44 10° SW 19:27:53 11° SW 19:32:30 10° SSW visible
